Temp
22 21 20 20 20 20 21 21 21 21 21 22 22 21 21 21 22 23 25 26 26 25 25 26 25 26 26 26 27 27 25 24 24 23 21 19 18 17 17 17 17 17 17 16 16 15 15 15 16 16 17 17 17 17 17 17 17 17 17 16 16 17 17 18 18 18 18 17 17 17 17 17 17 17 17 17 17 17 17 18 18 18 18 17 17 17
21 20 20 20 20 21 22 21 21 21 21 21 21 21 21 21 22 23 24 25 26 25 24 25 25 25 26 26 27 26 26 25 24 22 20 19 17 17 18 17 17 16 16 16 16 15 15 16 16 16 16 16 16 17 17 17 17 17 17 17 17 17 18 18 18 18 17 18 18 18 17 17 17 17 17 17 18 18 18 18 18 17 17 17 17 17
20 19 20 21 21 21 21 21 20 21 21 21 21 20 20 21 22 23 25 25 25 24 24 25 24 25 26 26 26 26 26 25 23 22 20 18 17 18 18 17 17 16 16 16 16 15 15 16 16 16 16 16 16 16 17 17 17 17 17 17 17 18 18 18 18 18 18 18 18 18 18 18 18 18 18 18 18 18 18 18 17 17 18 17 17 17
19 20 21 21 20 20 21 21 20 20 20 20 20 20 20 21 22 22 24 25 25 24 24 24 23 24 25 26 26 24 22 23 22 21 19 17 18 18 17 17 16 16 16 16 16 16 16 16 16 16 16 16 16 16 16 16 16 16 16 17 17 18 18 18 18 18 18 18 18 19 19 18 18 18 18 18 18 18 18 18 18 18 17 17 17 17
20 21 22 21 20 20 21 21 20 20 20 20 21 21 21 22 22 23 23 24 24 24 24 23 22 23 24 25 25 21 20 20 20 19 18 17 18 17 16 16 16 16 16 16 16 16 16 16 16 16 16 16 16 16 16 16 16 16 16 17 18 18 18 18 18 19 19 19 18 18 18 18 18 17 18 18 18 18 18 18 18 18 17 18 17 17
20 22 22 22 21 21 21 21 21 20 20 20 21 22 22 23 23 24 23 23 22 23 24 23 21 21 23 25 24 21 19 19 18 18 17 17 17 16 16 16 16 16 16 16 16 16 16 16 16 15 15 16 16 16 16 16 16 16 16 17 18 18 18 18 18 19 19 19 19 18 17 17 17 17 17 18 18 18 18 18 18 17 17 17 17 17
21 22 22 22 22 21 21 21 21 21 20 20 22 24 23 23 24 24 23 22 21 22 24 24 22 21 23 24 22 20 19 18 18 18 17 17 16 16 16 16 16 16 16 16 16 16 16 16 16 15 15 16 16 16 16 16 16 16 16 16 17 18 18 18 18 18 19 19 18 18 18 17 17 17 17 18 18 18 18 18 18 17 17 17 17 17
22 23 22 22 22 21 21 21 22 22 21 21 24 25 24 24 24 24 23 22 21 22 23 24 23 21 22 21 19 19 18 17 18 18 17 17 17 16 16 16 16 16 16 16 16 16 16 16 16 15 15 16 16 16 16 16 16 16 16 16 17 17 17 18 18 18 19 18 18 18 18 18 18 18 18 18 18 18 18 18 18 17 17 17 17 17
23 23 23 22 21 21 21 22 22 22 22 23 25 25 25 25 24 24 23 22 22 22 22 23 23 22 21 20 19 19 18 17 18 18 18 18 17 17 16 16 16 16 16 16 15 16 16 16 16 16 15 15 16 16 16 16 16 16 16 16 16 17 17 18 18 18 19 19 18 18 18 18 19 18 18 18 18 18 18 18 18 17 17 17 17 17
23 23 24 23 22 21 22 23 23 23 23 25 26 25 24 24 24 24 23 22 22 21 21 22 22 21 21 21 20 19 18 17 18 18 18 18 17 17 16 16 16 16 17 17 16 16 16 16 16 16 15 15 16 16 16 16 16 16 16 16 16 17 17 18 18 18 19 19 19 19 19 19 18 18 18 18 18 18 18 18 18 17 17 17 17 17
23 23 24 24 23 23 24 24 24 24 25 25 25 24 23 23 23 23 22 21 21 21 21 22 23 22 21 21 21 20 19 18 18 18 18 18 18 17 16 16 16 16 17 17 16 16 15 16 16 16 15 15 15 15 16 16 15 16 16 16 16 17 17 18 18 18 19 19 19 19 19 19 18 18 18 18 18 18 18 18 18 18 17 17 17 17
23 23 24 25 25 25 25 25 24 25 25 25 24 23 22 22 22 22 21 21 20 20 21 22 22 22 21 21 21 21 20 19 19 19 18 18 18 17 16 16 16 16 16 17 16 15 15 15 15 15 15 15 15 15 15 15 15 16 16 16 16 16 17 18 18 18 19 19 19 19 19 19 19 19 18 18 18 18 18 18 18 17 17 17 17 17
23 23 24 25 26 26 25 24 24 25 24 24 23 22 21 21 21 21 20 21 20 21 22 22 22 21 21 20 20 20 19 19 20 20 19 18 17 17 16 16 16 16 16 17 16 15 15 15 15 15 15 15 15 15 15 15 15 16 16 16 16 16 17 18 18 18 19 19 19 19 19 19 19 18 18 18 18 18 18 18 18 17 17 17 17 17
22 23 23 24 25 26 25 24 23 23 24 23 22 21 21 20 20 20 20 20 20 21 21 22 22 21 20 20 20 19 19 19 20 20 19 19 18 17 16 16 16 16 17 17 17 16 15 15 15 15 15 15 15 16 16 16 15 16 16 16 16 16 17 18 18 18 19 19 19 19 19 19 19 18 18 18 18 18 18 18 18 17 17 17 17 17
21 21 23 24 24 25 26 25 24 24 24 24 23 22 21 21 20 20 20 20 20 21 21 21 21 20 20 20 20 19 19 19 20 19 19 19 18 17 17 17 16 16 17 17 16 16 16 15 15 15 15 15 15 16 16 16 15 16 16 16 16 16 17 17 18 18 18 19 19 19 19 19 19 19 18 18 18 18 18 18 18 17 17 17 17 17
20 21 23 25 25 25 26 25 25 24 23 23 23 22 21 22 22 21 20 20 20 20 21 20 20 19 19 20 19 19 19 19 19 19 18 18 18 17 17 17 16 16 16 16 16 16 16 16 15 15 15 15 15 16 16 16 16 16 16 16 16 16 17 17 17 18 18 18 18 18 18 19 19 19 18 18 18 18 18 18 18 17 17 17 17 17
20 21 24 25 24 25 26 25 25 24 23 23 22 22 22 23 23 21 20 20 20 20 20 19 19 18 19 19 19 19 19 19 19 18 18 18 17 17 16 16 16 16 16 16 16 16 16 16 16 15 15 15 15 15 15 16 16 16 16 16 16 16 16 17 17 17 18 18 18 18 18 19 19 19 18 18 18 18 18 18 17 17 17 17 17 17
21 21 23 24 24 25 25 25 25 25 25 23 22 22 23 22 22 21 20 20 20 20 20 19 18 18 18 19 19 18 18 18 18 17 17 17 17 16 16 15 16 16 16 16 16 16 16 15 15 15 15 15 15 15 15 15 16 16 16 16 16 16 16 16 17 17 18 18 18 18 18 18 19 19 18 18 18 18 18 17 17 17 17 17 17 17
21 21 22 24 24 25 25 24 24 25 25 25 24 24 23 21 21 21 20 20 19 19 20 19 18 18 18 18 18 18 18 18 17 17 17 17 16 16 16 15 15 15 15 15 15 15 15 15 15 15 15 15 15 15 15 15 15 16 16 16 16 16 16 16 17 17 18 18 18 18 18 19 19 19 18 18 18 18 18 17 17 17 17 17 17 17
21 20 21 23 24 24 24 22 22 22 24 25 24 24 22 22 21 21 20 20 20 19 19 19 19 18 17 16 16 17 18 17 16 16 16 16 16 15 15 15 15 15 15 15 14 15 15 14 14 14 15 14 14 14 14 15 15 15 16 16 16 16 16 16 16 17 17 17 18 18 18 18 18 18 18 18 18 18 18 18 17 17 17 17 17 17
20 20 20 22 23 23 22 21 21 21 22 23 22 22 21 21 21 21 20 20 20 20 19 19 19 17 15 15 15 15 16 16 15 15 16 16 15 15 15 14 14 14 14 14 14 14 14 14 14 14 14 14 14 14 14 15 14 14 15 15 16 16 16 15 16 16 16 16 16 17 18 19 18 18 18 18 18 18 18 18 17 17 17 17 17 16
20 20 20 21 22 21 21 21 21 21 21 21 21 21 20 20 21 21 20 20 20 20 19 20 19 16 15 15 14 15 15 16 15 15 14 14 14 14 14 14 14 14 14 14 14 14 14 14 14 14 14 14 14 14 15 15 15 14 15 15 15 15 15 15 15 15 16 16 16 17 18 18 18 18 18 18 18 18 18 18 17 17 17 17 17 16
19 19 20 20 20 20 21 21 21 21 20 20 20 20 20 20 21 21 21 20 20 20 19 19 19 16 14 15 14 14 15 15 15 14 14 14 13 14 14 14 14 14 14 14 13 13 13 13 13 13 13 14 14 14 15 15 15 15 14 14 14 14 15 15 16 16 16 16 17 17 17 17 17 17 18 18 18 18 18 18 17 17 17 17 17 16
19 19 19 20 19 20 21 20 20 20 20 20 19 19 19 20 20 20 20 20 20 19 19 19 18 16 14 15 15 14 14 14 14 14 14 14 13 14 14 14 14 14 14 14 13 13 13 13 13 13 14 14 13 14 14 15 14 14 14 14 14 15 15 16 16 15 14 14 15 16 16 17 17 17 17 17 17 18 18 17 17 17 17 17 17 17
19 18 18 19 19 20 20 20 20 20 19 19 19 18 18 20 20 20 19 20 20 19 19 20 18 15 15 15 15 15 15 14 14 14 14 14 14 14 14 14 13 14 14 14 14 14 13 13 14 14 14 14 13 14 14 14 13 13 13 14 14 14 14 15 15 14 13 14 15 15 16 16 16 16 16 17 17 17 17 17 17 17 17 17 17 17
19 18 18 18 18 18 18 19 19 18 18 18 18 18 18 19 20 20 19 21 20 18 18 19 16 14 14 15 14 14 14 14 14 13 13 13 13 14 13 13 13 13 13 14 14 13 13 14 14 14 14 14 14 14 14 14 13 14 13 13 14 14 13 14 14 14 14 14 14 14 15 16 16 16 17 17 17 17 17 17 17 17 17 17 17 17
17 16 17 17 17 17 18 18 18 17 17 17 17 18 18 18 19 19 20 20 19 18 17 15 15 15 14 14 14 14 14 14 13 13 13 13 13 13 13 13 13 13 13 13 13 13 13 13 13 13 13 14 14 14 14 14 14 15 15 14 13 13 13 13 14 14 14 13 13 14 15 15 16 16 17 17 17 17 17 17 17 16 16 17 17 17
17 15 15 16 16 16 16 17 18 17 17 16 16 17 18 18 20 20 19 18 17 18 17 14 14 15 14 14 14 13 13 13 13 13 12 12 12 12 12 12 12 11 11 11 11 12 12 12 12 12 12 13 13 14 14 14 15 15 15 15 15 14 13 13 14 14 14 13 14 15 15 15 16 17 17 17 17 16 17 17 17 16 16 16 17 17
17 15 14 15 15 15 15 16 17 16 16 15 15 16 16 17 18 19 17 15 16 18 17 14 14 14 13 13 12 12 12 11 11 11 11 11 10 10 10 10 10 10 10 10 10 10 11 11 11 11 11 12 12 13 13 13 13 14 14 15 15 15 14 14 14 14 14 14 14 15 15 16 16 16 16 16 16 16 16 16 16 16 16 17 17 17
16 14 14 14 15 14 14 14 15 15 15 14 14 14 14 15 15 15 15 14 14 15 14 13 13 12 11 11 10 10 10 10 10 10 10 10 9 9 9 9 9 9 9 9 9 10 10 10 10 11 11 11 12 12 13 13 13 13 13 14 15 15 14 14 14 13 13 14 14 14 15 16 16 16 16 16 16 16 16 16 16 16 17 17 17 17
16 15 14 14 15 14 13 14 14 14 14 13 13 13 14 14 14 14 14 13 13 13 12 12 11 11 10 10 10 10 10 10 9 9 9 9 8 8 8 8 8 8 8 8 9 9 9 9 10 10 10 11 11 12 12 13 13 13 13 13 14 14 15 14 14 14 13 13 14 14 14 15 15 15 16 16 16 15 16 16 17 16 16 16 16 17
15 14 13 14 15 13 13 13 14 14 14 14 13 13 13 14 14 14 14 14 13 12 12 12 11 10 10 10 9 9 9 8 8 8 8 8 8 8 7 7 7 7 7 8 8 8 8 8 9 9 10 10 11 11 12 12 13 12 12 12 13 14 14 14 14 13 13 13 13 13 14 14 15 15 15 15 15 15 15 16 16 16 16 16 16 16
15 15 14 14 14 13 12 13 13 14 15 14 12 11 12 13 13 13 13 13 13 12 12 12 11 10 10 9 9 8 8 7 7 7 7 8 7 7 7 7 7 7 7 7 7 7 7 8 8 9 9 9 10 10 11 11 12 12 12 12 12 12 12 12 13 13 12 12 12 13 13 14 14 14 14 14 14 14 15 15 15 15 15 15 16 16
14 14 14 14 14 13 12 12 13 14 13 12 11 11 12 13 13 12 12 11 12 11 11 10 10 10 10 9 8 8 8 7 7 6 6 7 7 7 7 7 7 7 7 7 7 7 7 7 8 8 8 9 9 10 10 11 11 11 11 11 12 12 12 12 12 12 12 12 12 12 12 13 13 13 13 14 14 14 14 14 14 14 15 15 15 15
13 14 14 13 14 13 12 13 14 13 12 12 12 11 12 12 12 11 11 10 10 10 9 9 9 9 9 9 8 8 7 7 7 6 6 6 6 6 6 6 7 7 7 7 7 7 7 7 7 7 8 8 9 9 10 10 10 10 11 11 11 11 11 12 12 12 12 12 12 12 12 12 12 13 13 14 14 14 14 14 14 14 14 14 14 15
14 14 14 13 14 13 13 14 13 12 11 12 11 11 11 12 12 12 11 10 10 10 9 9 8 8 8 8 8 7 7 7 7 7 7 6 6 6 6 6 6 6 6 6 6 6 6 7 7 7 7 8 9 9 9 10 10 10 10 10 11 11 11 11 11 11 12 12 12 12 12 12 12 12 12 12 13 13 13 13 13 14 14 14 14 14
15 15 15 14 14 13 12 12 12 11 11 11 11 10 10 11 11 11 11 11 11 10 10 9 8 8 8 8 8 8 8 8 8 7 7 7 6 6 6 6 6 6 6 6 6 6 6 7 7 7 7 8 8 8 9 10 10 10 10 10 10 10 10 11 11 11 12 12 12 12 12 12 12 12 12 12 12 12 13 13 13 14 14 14 14 14
14 15 15 15 14 13 12 11 11 11 11 11 11 10 10 10 10 10 11 11 11 11 10 9 8 8 8 8 8 8 9 9 7 7 7 7 7 7 6 6 6 6 6 7 7 7 7 7 7 7 8 8 8 8 9 10 10 10 10 9 9 10 10 10 10 11 11 12 12 12 12 12 12 12 12 13 12 12 13 13 13 13 13 14 14 14
13 14 14 14 13 12 12 11 11 11 11 10 10 11 11 10 10 11 11 11 11 11 10 9 9 8 8 8 8 8 9 8 7 7 8 7 7 7 7 7 7 7 7 7 7 7 7 7 7 7 8 8 8 8 8 9 10 10 9 9 9 9 9 9 10 10 11 11 11 12 12 12 12 12 12 12 13 13 13 13 13 13 13 13 14 14
13 13 13 13 12 11 11 11 10 10 10 10 10 11 11 10 11 12 12 11 11 12 11 10 9 9 9 9 9 9 9 8 8 8 8 8 7 7 7 7 7 7 8 8 8 8 7 8 8 7 8 8 8 8 9 9 9 9 9 8 9 8 8 9 10 10 10 11 11 11 11 11 11 11 11 12 12 12 12 13 13 13 13 13 13 13
12 12 12 12 11 10 10 10 9 9 10 10 10 10 11 11 11 12 11 11 11 12 11 11 11 10 10 10 9 9 8 9 9 9 9 8 8 8 8 8 8 8 8 8 8 8 8 8 8 7 7 8 9 9 9 9 9 9 8 8 8 8 8 9 9 10 10 10 10 11 11 11 11 11 11 11 11 12 12 12 13 13 13 13 13 13
11 11 11 11 11 10 10 9 9 9 10 9 9 10 11 11 11 11 10 11 11 11 11 11 10 10 10 9 8 8 8 8 9 9 8 8 8 8 8 8 8 8 8 8 9 9 8 8 8 8 8 8 8 9 9 9 8 8 8 8 8 8 8 8 9 9 9 9 9 10 10 10 10 10 10 10 11 11 12 12 12 12 13 13 13 13
11 11 10 10 10 10 10 9 9 9 9 9 9 10 11 10 10 10 10 10 10 10 10 10 9 9 9 8 8 8 8 8 8 8 7 7 7 7 7 7 7 8 8 8 8 8 8 8 8 8 8 8 8 8 8 8 8 8 8 8 8 8 8 8 8 8 9 9 9 9 9 9 9 9 10 10 10 10 11 11 12 12 12 12 12 12
10 11 10 9 9 10 9 8 8 9 8 8 9 10 9 9 10 10 9 9 10 10 9 9 9 9 9 8 8 8 8 8 8 7 7 7 7 6 6 7 8 8 8 8 8 8 8 8 8 8 8 8 8 8 8 8 8 8 7 7 7 8 8 8 8 8 8 8 8 8 8 8 8 9 9 9 9 9 10 10 10 11 11 11 11 11
10 10 10 8 8 9 8 8 8 9 8 8 8 8 8 8 9 9 9 9 9 9 9 9 9 9 9 8 8 8 8 8 8 8 8 8 7 6 7 7 8 8 8 8 8 8 8 8 8 8 8 8 7 7 7 7 7 6 6 6 7 7 7 7 7 7 7 7 7 7 7 7 8 8 8 8 8 9 9 9 9 9 10 10 10 11
10 10 10 9 8 9 9 9 9 9 9 8 8 8 8 8 8 8 8 8 8 8 9 9 9 9 9 9 9 8 8 8 8 8 8 8 6 6 8 8 8 8 8 8 8 8 8 8 8 7 7 6 6 6 6 6 6 5 5 6 6 6 6 6 6 6 6 6 6 6 6 6 7 7 7 7 8 8 8 8 8 8 8 9 9 10
10 10 10 9 9 8 8 8 9 9 9 9 8 8 8 8 8 8 8 8 8 8 8 8 8 8 8 9 9 8 8 8 8 8 8 8 6 6 7 8 7 8 8 8 8 8 8 8 7 6 6 5 5 5 5 5 5 5 5 5 5 5 6 6 5 5 5 5 5 5 5 5 5 6 6 6 7 7 7 7 7 7 7 8 8 8
10 10 10 9 9 8 8 9 9 9 9 9 9 9 9 9 9 9 9 8 8 8 8 8 8 8 8 8 8 8 8 8 8 8 7 7 5 5 7 7 8 8 7 7 7 7 7 7 6 5 5 5 5 5 5 4 4 4 4 4 4 5 5 5 4 4 4 4 4 4 4 4 4 5 5 5 6 6 6 6 6 6 6 6 6 6
10 10 9 9 8 8 8 9 9 9 9 9 9 9 9 9 9 9 9 9 8 8 8 8 8 7 7 7 7 7 8 7 6 6 6 5 4 5 7 7 7 7 7 6 6 6 6 6 5 5 5 5 5 5 4 4 4 4 4 4 4 4 4 4 4 4 3 3 3 3 3 4 4 4 4 5 5 5 5 5 5 5 6 6 6 6
10 9 9 8 8 8 8 9 9 9 8 9 9 9 9 9 9 9 9 9 8 8 8 8 7 6 6 6 6 7 8 7 6 5 5 5 5 6 7 7 7 6 6 6 6 6 5 5 5 5 5 5 5 5 4 4 4 3 3 3 3 3 3 3 3 3 3 3 3 3 3 3 3 4 4 4 4 4 5 5 5 5 5 6 6 6
10 9 9 9 8 9 9 9 9 9 9 8 9 9 9 9 9 9 8 8 8 7 7 8 8 7 6 6 7 7 6 6 6 5 5 6 7 7 7 6 6 6 6 6 5 5 5 5 5 5 5 4 4 4 4 4 3 3 3 3 2 2 3 2 2 3 3 3 3 3 3 3 3 3 3 3 3 4 4 4 5 6 6 6 6 6
Height
747 756 760 759 760 758 756 756 756 758 758 759 761 763 763 762 758 748 741 734 732 740 740 736 738 733 729 726 720 721 727 731 736 742 748 753 757 759 760 760 760 760 760 759 760 761 762 762 763 765 766 768 769 770 771 772 776 779 783 787 790 792 793 794 794 796 797 799 800 801 802 804 805 807 809 811 811 812 812 813 815 815 816 817 818 819
749 760 760 755 756 753 752 752 754 757 757 759 762 763 764 763 757 745 740 735 730 740 739 733 737 731 725 724 718 719 726 730 735 740 747 752 757 759 759 760 761 761 762 762 762 762 763 764 764 765 766 767 769 769 770 771 774 778 782 786 789 791 792 793 794 796 797 798 800 801 803 804 806 808 810 811 812 813 813 814 815 816 816 817 818 820
758 761 754 748 750 750 751 752 755 758 758 761 763 766 767 761 754 743 736 733 731 739 737 732 736 730 721 720 717 720 724 727 729 732 739 747 754 758 759 760 762 763 764 762 762 762 763 764 763 764 765 767 768 768 771 773 775 779 782 785 788 790 792 794 796 797 799 800 802 803 804 806 807 809 811 812 813 814 814 815 816 816 817 818 820 821
764 754 743 743 747 751 753 752 755 759 760 762 762 767 766 757 756 750 738 732 731 734 732 730 734 728 723 720 720 726 728 728 730 731 738 744 748 754 757 760 761 762 763 762 762 763 764 764 763 764 765 768 769 770 773 776 778 781 784 786 789 791 793 795 797 799 801 803 804 805 806 808 809 810 811 813 814 815 815 815 816 817 818 820 821 823
756 740 734 741 747 750 752 752 755 760 761 759 757 760 759 751 751 748 740 734 730 728 725 730 739 735 728 725 728 735 735 734 737 740 748 751 751 756 758 759 759 757 758 760 762 763 762 762 763 764 766 768 770 772 775 778 781 784 786 788 790 792 794 796 798 800 802 803 804 806 807 809 809 810 811 812 813 815 815 816 817 818 819 821 823 824
748 734 733 741 744 747 751 752 752 757 760 758 752 748 747 745 744 741 740 741 742 738 726 730 749 747 732 727 735 742 743 746 747 748 754 757 757 759 760 759 758 757 756 757 758 759 759 759 763 765 767 769 771 775 778 781 783 786 788 790 792 794 795 797 799 801 802 803 804 805 806 807 807 809 810 811 812 814 816 817 818 819 821 822 824 825
740 731 733 738 741 744 750 751 747 750 760 760 745 736 738 740 739 739 740 746 752 747 729 726 744 749 735 733 743 746 750 756 755 754 757 759 761 760 759 758 757 758 758 758 759 759 759 760 763 765 767 770 773 777 780 783 785 787 790 792 793 795 797 798 800 801 802 803 804 805 805 806 807 808 810 811 813 814 816 817 819 821 822 824 825 826
732 731 734 736 740 744 750 750 740 741 755 754 735 728 734 736 736 737 740 748 749 742 732 725 731 742 743 748 753 749 756 764 760 759 759 758 760 758 757 756 754 755 757 758 760 759 761 762 763 765 768 772 775 778 781 784 786 788 791 793 795 796 798 799 801 802 803 804 805 806 807 807 808 809 811 813 814 815 816 818 819 822 824 825 826 827
728 732 732 733 741 746 745 738 731 734 744 738 724 724 729 730 732 734 737 744 744 742 743 731 729 744 751 754 757 752 759 769 765 761 758 755 756 756 755 754 753 755 755 756 759 760 762 763 764 766 769 773 776 779 782 784 786 789 791 793 795 797 798 799 800 802 803 805 806 807 807 808 810 811 813 814 815 817 817 819 820 823 824 826 827 827
727 726 723 727 737 739 732 725 723 730 732 724 719 724 727 729 732 733 738 742 743 750 751 736 732 748 754 752 755 758 764 769 766 761 757 754 755 755 755 754 753 755 755 757 760 763 765 765 766 768 771 774 776 779 782 784 787 789 791 794 795 797 798 799 801 801 803 805 806 807 808 809 811 812 814 815 817 818 819 820 822 823 825 826 827 828
724 720 718 721 725 723 719 718 718 721 720 718 721 728 731 735 735 737 741 743 752 759 751 737 733 743 756 755 753 756 758 759 761 762 760 757 757 757 756 754 754 754 755 758 761 766 768 767 767 770 772 774 777 779 783 785 787 790 792 794 795 797 799 800 801 802 803 805 806 807 808 810 811 812 814 815 817 819 820 821 822 824 825 826 827 828
724 722 720 714 710 711 712 715 715 714 716 719 725 731 739 744 743 745 746 747 762 765 746 736 735 740 754 757 750 749 750 749 750 753 755 754 755 757 756 755 754 755 757 758 760 764 767 768 768 770 771 774 777 780 783 786 789 791 792 794 796 798 800 801 802 804 805 806 807 808 809 810 812 813 814 815 817 819 820 821 823 824 825 826 828 829
727 723 718 711 705 705 712 719 720 717 717 723 730 737 749 756 756 759 758 756 763 758 740 734 737 744 756 755 750 749 748 746 742 741 747 751 754 756 755 755 755 756 758 757 759 762 764 765 766 768 770 773 776 779 782 785 787 790 792 795 797 799 801 802 804 805 806 807 808 809 810 811 812 814 815 816 818 819 820 822 823 825 826 827 828 830
733 724 716 714 709 703 709 722 728 725 723 727 733 739 751 761 768 772 769 765 763 752 741 736 737 751 762 754 749 749 745 743 740 740 744 749 755 758 756 755 756 756 755 753 755 758 760 763 765 768 771 773 775 778 780 783 786 789 792 795 797 800 801 803 804 805 806 808 809 810 811 812 813 814 816 817 818 819 821 823 824 826 827 828 830 831
744 738 721 716 714 706 707 714 719 720 722 725 725 731 740 747 757 765 764 763 762 753 746 744 746 760 766 755 749 748 744 744 744 744 745 748 754 757 756 756 756 755 753 751 754 758 760 763 766 770 772 773 775 776 778 782 785 789 792 795 797 799 801 802 804 805 806 808 809 811 812 813 814 815 816 817 818 820 821 823 825 827 828 830 831 831
744 740 717 708 707 704 706 707 705 715 726 725 722 730 736 732 736 751 758 756 756 756 754 755 761 766 762 754 750 749 747 749 749 749 749 751 754 755 756 757 756 753 752 753 757 760 761 762 765 768 771 773 774 776 779 782 786 789 792 794 796 798 800 801 803 805 806 808 809 811 812 813 814 815 816 817 819 820 822 824 826 828 829 830 831 832
740 734 712 706 707 702 703 703 702 712 724 725 727 731 728 721 723 743 759 756 754 762 764 765 772 771 764 758 754 753 754 753 753 754 755 756 757 758 759 758 756 752 752 755 758 760 761 762 763 765 767 771 774 777 780 782 785 787 789 792 794 797 799 801 803 804 806 807 809 811 812 813 814 815 816 818 819 821 823 825 827 828 830 830 831 832
735 734 716 710 712 704 698 701 702 703 710 721 729 725 720 724 727 736 755 763 766 772 768 768 775 776 774 771 763 761 761 758 758 760 760 761 761 761 761 758 756 753 754 757 758 759 761 762 763 764 766 770 774 778 780 782 785 786 787 790 792 795 798 800 802 804 805 807 808 810 811 813 814 815 817 818 820 822 823 825 827 829 830 831 832 833
729 737 724 709 712 706 698 705 712 706 703 710 717 715 720 734 739 741 753 765 775 779 774 773 776 776 778 778 771 769 767 764 763 763 763 764 763 762 761 758 757 756 757 759 760 760 761 762 764 765 768 771 775 778 781 783 786 787 787 788 790 794 797 800 803 804 806 808 808 810 811 813 814 816 817 819 820 822 824 826 827 829 831 832 833 834
727 738 732 713 708 708 707 717 727 722 710 707 712 716 721 729 735 740 747 754 764 776 779 776 775 779 783 782 778 773 770 769 769 766 764 765 764 763 762 762 761 762 762 763 763 763 762 764 765 766 769 772 775 778 781 784 786 788 788 787 789 793 797 801 804 806 808 809 809 810 811 813 815 816 818 819 821 823 825 826 828 830 832 833 834 835
728 737 737 721 710 715 723 726 730 729 721 718 724 728 728 728 730 737 745 746 749 762 773 772 774 784 785 781 780 774 771 773 774 772 769 766 766 767 766 767 767 768 770 770 768 767 765 766 767 767 769 772 774 778 781 783 787 789 790 789 789 792 797 801 805 806 808 809 811 812 812 813 814 816 818 819 821 824 826 827 829 831 833 834 836 837
732 737 738 731 725 729 732 724 720 725 726 727 731 733 735 734 734 742 751 750 744 750 762 764 771 786 785 778 778 774 770 771 773 776 776 771 770 771 770 770 770 770 772 774 774 773 770 768 768 769 771 772 774 778 780 783 786 789 791 791 791 792 796 800 802 805 806 808 812 814 813 813 814 816 818 820 823 826 828 829 830 832 834 835 837 839
730 736 738 738 735 735 731 722 718 721 724 728 731 733 736 734 735 743 750 751 749 752 759 760 769 784 785 778 777 774 772 773 772 775 778 777 774 773 772 771 771 771 771 772 774 777 776 773 772 774 775 774 775 778 780 782 785 788 791 792 793 793 795 798 800 803 805 807 810 813 813 813 815 817 818 820 824 826 828 830 831 832 834 835 838 840
729 738 741 740 738 734 730 726 721 720 724 731 736 737 736 734 735 740 743 744 748 755 758 761 773 786 784 779 777 775 775 776 774 775 780 781 777 774 773 772 772 773 773 772 773 776 779 779 779 779 779 777 778 779 780 781 785 788 789 791 793 794 794 796 799 802 805 808 810 812 813 814 816 818 820 822 824 826 828 830 832 832 833 834 837 840
731 742 744 745 746 742 740 738 732 729 733 739 743 742 740 736 733 737 741 739 747 756 754 756 775 788 783 778 779 776 774 777 778 780 783 782 778 776 775 774 773 774 776 777 775 777 780 783 783 782 781 781 781 780 780 781 784 786 788 789 791 793 794 795 798 802 805 808 811 813 813 814 817 819 822 823 825 826 828 830 832 833 832 834 836 838
735 743 743 748 756 755 754 751 745 743 742 744 746 744 742 740 735 737 740 739 747 758 757 761 777 786 782 780 781 780 778 780 784 786 786 783 781 780 778 778 778 777 779 780 779 780 782 784 785 784 783 784 783 782 781 783 784 785 787 789 791 793 794 795 797 800 803 807 810 812 812 814 817 819 821 823 824 825 827 829 831 833 833 834 834 836
740 747 746 749 755 755 755 752 747 746 746 749 751 747 744 744 740 740 742 744 750 758 766 774 777 780 784 784 784 785 783 784 787 788 787 785 784 785 784 782 782 783 784 784 782 782 783 785 786 785 785 785 784 783 783 783 783 783 785 788 790 792 793 794 796 798 801 805 809 811 811 813 816 818 819 820 821 823 825 826 829 832 834 834 835 835
741 752 753 753 754 754 754 748 744 746 749 752 752 751 749 745 740 741 747 755 756 754 766 779 776 776 784 785 784 787 786 787 789 790 790 789 788 789 788 786 787 788 789 788 787 786 787 788 788 788 787 787 787 785 784 784 784 784 784 786 788 791 792 794 796 798 801 805 808 810 810 811 814 816 817 818 820 822 823 824 826 830 832 834 834 835
743 756 757 754 756 758 757 753 749 750 755 757 756 756 756 751 747 748 755 763 762 755 764 777 778 780 786 788 790 792 792 794 795 794 794 793 793 793 792 791 793 794 794 794 793 791 791 791 791 790 791 790 790 789 788 788 788 787 787 787 788 790 792 794 797 799 802 804 806 807 808 810 812 814 816 817 818 820 822 823 825 828 830 832 832 833
746 758 760 756 760 762 763 763 760 757 760 764 765 765 764 762 760 760 763 768 769 768 773 780 785 791 794 795 796 796 797 798 798 797 798 798 799 799 797 798 800 799 799 799 797 796 796 796 795 794 793 793 792 792 792 793 792 792 792 792 791 792 792 794 797 800 801 803 805 806 807 809 812 814 816 817 818 819 821 823 825 826 828 829 830 831
746 757 760 757 762 768 769 768 767 765 765 768 771 770 767 765 764 766 769 770 774 781 785 786 791 798 801 799 798 798 798 799 801 803 804 805 805 804 803 804 805 804 804 803 801 800 800 799 799 798 797 796 795 794 795 796 797 797 798 797 796 795 795 796 798 800 802 803 804 806 808 810 812 813 815 816 817 819 820 822 824 825 826 828 829 830
747 757 762 759 764 773 773 772 773 770 764 766 771 774 773 769 767 769 770 770 775 784 787 787 793 801 803 802 801 801 801 804 807 808 808 810 810 808 808 810 809 809 809 807 805 804 803 803 803 802 801 800 798 797 798 798 798 800 801 801 801 799 799 799 800 802 804 804 806 807 808 809 811 812 814 815 817 818 820 822 823 824 826 827 827 829
749 754 760 762 767 775 776 776 776 770 766 774 781 782 780 774 770 771 774 773 775 780 783 786 793 801 804 803 805 808 808 810 814 813 812 814 813 811 812 812 813 813 812 811 809 808 807 808 807 807 806 804 803 802 802 800 800 801 803 803 804 804 804 804 804 805 806 807 807 808 809 810 811 812 814 816 817 819 820 822 823 824 825 826 827 828
752 753 758 762 766 773 778 778 775 773 779 788 789 783 780 776 773 776 783 784 783 785 789 793 797 802 804 805 808 812 812 814 817 816 815 815 816 815 815 814 815 815 813 813 813 811 812 812 811 811 810 808 808 807 805 804 804 805 806 806 807 808 808 809 809 809 810 810 810 810 811 811 812 812 814 815 816 818 820 822 823 824 825 826 827 827
755 755 759 762 764 770 777 776 775 782 788 789 787 784 782 780 779 782 789 792 791 792 797 801 804 805 808 809 811 814 815 815 816 817 817 817 817 817 817 816 816 816 815 815 815 815 815 815 815 814 813 812 813 810 808 808 809 809 809 809 810 810 811 811 811 811 812 813 813 814 814 814 814 814 815 815 815 816 818 820 821 823 824 825 826 826
752 754 758 762 764 769 774 773 776 788 793 788 787 790 788 784 782 784 792 797 797 796 798 805 809 810 811 813 814 815 816 814 815 818 819 819 818 818 819 819 818 818 817 817 817 818 818 818 818 818 816 816 816 814 812 812 812 812 811 812 812 813 813 813 813 813 814 814 815 816 816 817 817 817 817 817 817 817 817 818 819 821 823 824 824 825
747 750 754 760 765 771 779 783 786 793 795 792 792 795 795 793 790 789 795 800 799 797 799 805 810 812 812 813 815 814 812 811 816 821 822 821 821 820 820 819 819 820 820 818 819 820 820 820 820 820 819 819 819 819 817 815 815 814 813 814 815 816 816 816 816 816 816 816 816 817 817 818 818 818 818 819 818 818 818 818 819 820 821 822 823 824
748 749 751 757 765 772 780 789 792 792 794 795 795 795 795 796 795 792 795 800 800 799 800 803 808 812 812 812 814 812 807 811 822 827 825 824 823 822 821 821 820 822 822 821 821 821 821 822 822 822 822 822 822 822 820 817 816 815 815 817 818 819 820 820 820 820 818 818 818 818 818 818 819 819 819 819 819 818 818 818 819 820 821 821 822 822
753 754 753 757 767 772 776 785 791 793 796 797 796 792 791 794 794 790 794 802 802 799 801 803 807 811 812 811 813 810 808 816 828 829 825 825 825 823 823 823 822 823 823 823 822 822 823 823 824 824 824 824 825 825 823 820 818 817 818 819 820 821 822 822 823 822 821 820 819 819 819 819 819 819 819 819 819 819 819 819 820 820 821 821 822 822
759 761 760 766 777 780 782 791 798 799 799 798 795 792 790 791 791 789 794 801 799 796 800 802 804 808 809 810 811 811 811 818 825 824 823 825 826 825 824 824 824 824 823 823 824 824 824 825 826 827 826 826 827 827 825 823 820 819 820 821 821 823 824 825 825 824 823 822 821 820 820 819 820 820 819 820 820 820 820 820 820 820 821 821 822 822
769 771 771 776 784 786 788 797 804 802 798 796 796 793 790 790 791 792 796 797 795 795 799 800 802 806 807 808 811 813 815 817 818 820 822 825 826 827 827 826 825 825 824 825 826 826 826 827 828 829 829 829 829 827 826 824 823 823 824 823 824 825 827 827 826 824 824 823 822 822 821 821 821 821 820 821 820 820 820 820 821 821 822 822 823 822
777 780 781 783 786 788 792 800 804 802 798 796 796 793 789 790 794 796 796 796 795 797 799 801 804 806 808 811 814 816 819 819 819 822 824 825 826 828 827 827 827 827 827 827 827 827 828 828 829 830 831 831 831 830 829 827 827 827 827 827 827 828 828 828 827 826 824 823 823 823 823 822 822 822 822 822 822 821 821 821 822 823 823 823 823 822
782 785 789 792 791 790 795 802 804 803 801 797 795 793 792 795 799 799 799 799 799 800 802 805 808 809 810 814 817 819 821 822 823 825 826 827 828 828 828 829 829 829 829 829 829 830 830 830 831 831 832 832 832 832 831 830 829 829 829 830 831 831 830 828 827 826 825 824 824 824 823 824 823 823 823 823 823 823 823 822 823 823 822 822 822 821
784 784 789 797 798 795 801 809 810 808 805 800 795 797 799 801 801 800 801 803 804 804 805 808 812 813 813 816 819 821 822 824 825 826 827 828 829 829 830 830 830 831 831 831 832 832 832 832 833 833 833 833 833 833 832 830 830 830 830 831 832 832 831 830 828 827 826 825 825 824 824 824 824 824 824 825 825 825 825 824 824 823 822 821 820 821
789 786 788 799 804 802 805 812 812 809 807 803 801 803 804 804 803 803 804 806 809 809 809 811 814 816 816 817 819 821 823 825 826 826 827 828 829 829 830 831 831 832 832 833 833 834 833 834 834 834 834 834 833 833 833 832 832 832 833 833 833 832 831 831 830 829 828 827 826 825 824 824 823 824 824 825 826 826 825 825 825 824 823 821 820 820
793 790 790 799 805 805 807 810 809 808 808 806 806 806 806 806 807 807 807 810 813 814 814 815 816 818 819 819 820 822 824 825 826 827 828 829 830 830 831 832 832 833 833 833 833 833 833 834 834 834 834 834 834 834 834 834 834 835 836 836 835 834 833 832 831 831 830 829 829 828 827 826 826 826 826 826 826 825 825 825 824 823 823 822 821 820
793 791 794 800 805 808 813 814 810 809 810 809 808 809 808 809 810 810 811 814 816 817 818 819 820 821 821 822 823 825 826 827 827 829 830 831 832 833 833 833 834 834 834 834 834 834 834 834 834 835 835 835 835 835 835 835 835 835 836 836 835 835 834 833 833 832 832 832 832 831 831 830 830 829 829 828 827 826 826 825 823 822 822 821 820 820
794 793 797 803 806 809 814 814 810 810 811 810 810 811 811 812 813 813 814 816 818 820 822 822 823 824 825 825 826 827 828 829 830 831 833 833 834 834 834 835 835 835 835 836 835 835 835 835 836 836 836 836 837 836 836 836 836 836 835 835 835 834 834 834 834 833 833 833 833 833 833 833 832 832 831 830 829 828 827 826 825 824 824 823 822 821
794 795 800 806 810 813 815 814 812 813 814 814 813 813 813 814 815 816 817 819 820 822 823 824 825 826 827 828 828 828 830 832 832 833 835 836 836 836 836 836 836 837 837 837 837 837 837 837 837 837 837 837 837 837 836 836 836 836 835 835 834 834 834 834 834 834 834 834 834 834 834 834 834 833 833 832 831 830 829 828 827 826 825 824 823 822
796 801 805 809 814 817 816 813 812 814 817 818 816 815 816 816 817 818 820 821 822 823 824 826 827 828 828 829 829 830 832 833 834 835 836 836 837 837 837 837 838 838 839 839 839 839 839 839 839 838 838 838 837 837 836 836 836 836 836 835 835 835 834 835 835 835 835 835 835 835 835 835 834 834 833 832 831 830 828 827 827 826 825 824 822 821
798 802 804 806 811 812 811 811 811 813 816 818 817 817 818 818 819 821 822 823 824 825 825 827 828 830 831 831 831 831 833 834 835 836 836 837 837 837 838 838 839 840 840 841 840 840 840 840 840 839 839 838 838 837 837 837 836 836 836 836 836 835 835 835 835 835 835 835 835 835 835 835 834 834 833 832 831 830 828 826 825 824 824 823 821 819
Wind_Speed
4 3 5 6 6 6 7 7 7 5 5 6 6 5 5 5 6 8 8 7 4 4 7 10 10 13 14 12 13 7 8 11 11 12 11 10 10 11 12 11 10 10 9 10 15 18 20 24 28 28 31 32 31 32 34 33 33 34 32 29 31 32 32 32 32 31 29 27 25 24 23 22 20 19 19 18 17 17 18 17 16 14 11 10 9 8
3 6 8 7 8 8 9 8 7 6 7 7 6 7 7 5 8 10 7 7 4 4 8 10 11 15 14 13 14 8 7 9 13 15 14 14 12 11 13 12 10 8 8 10 11 14 19 22 25 28 30 30 29 31 34 34 34 34 32 31 32 33 33 32 31 31 30 28 27 25 23 22 20 19 20 19 18 17 17 16 14 12 11 9 8 8
2 6 10 11 9 9 8 7 7 7 7 7 5 4 6 5 6 9 6 6 3 3 7 8 10 14 15 14 12 6 3 4 13 19 18 18 16 13 13 12 11 11 11 11 10 13 17 20 24 25 26 27 28 30 31 30 32 32 31 31 32 32 32 31 30 30 28 26 25 23 22 22 21 19 19 19 18 17 16 14 12 12 11 10 9 9
3 8 11 11 8 7 8 8 6 5 4 5 5 3 6 5 3 6 5 5 3 4 7 7 9 9 9 10 5 4 4 5 9 16 15 16 17 15 13 12 13 15 14 13 11 12 14 17 21 21 21 22 23 26 26 25 27 29 29 29 30 31 30 30 29 27 25 24 23 22 22 22 21 19 19 19 17 16 15 14 13 13 13 13 13 11
9 12 6 6 7 8 9 8 5 4 4 6 7 7 7 5 5 7 6 6 7 7 3 4 4 4 5 6 1 7 9 10 10 14 13 11 13 13 11 11 13 14 14 14 14 13 13 16 18 19 20 21 21 23 22 21 23 25 26 28 30 31 30 29 27 25 25 25 25 24 23 21 20 19 19 19 17 15 15 15 15 16 16 15 15 14
13 13 3 5 8 9 8 8 7 6 5 6 7 9 9 6 6 8 6 5 6 7 3 5 5 3 5 0 4 5 8 10 9 14 15 12 12 11 11 10 10 11 11 12 14 15 14 16 17 18 20 20 20 20 19 20 21 23 24 26 29 29 29 28 27 26 27 27 28 28 25 23 21 20 20 20 19 16 15 15 17 17 16 15 14 13
9 9 5 8 9 8 9 9 7 8 5 6 6 8 8 6 4 7 6 4 1 4 4 4 6 3 4 5 6 7 10 10 9 13 15 13 11 10 10 10 9 9 9 9 12 14 13 13 15 17 19 20 19 18 18 19 20 21 22 24 26 27 27 27 25 25 26 27 28 28 26 25 25 23 21 21 19 16 15 14 16 17 15 14 14 12
7 8 6 8 8 7 7 7 8 9 7 6 6 7 6 3 5 7 5 3 3 4 5 3 4 3 3 3 6 10 12 10 11 14 14 12 12 11 11 12 12 12 11 9 11 13 11 12 13 16 19 20 19 19 20 20 20 20 20 22 23 24 25 24 23 23 24 27 28 27 26 26 25 24 23 22 20 16 15 14 15 17 16 15 14 14
5 8 10 8 7 6 6 10 11 9 7 7 6 7 5 4 7 6 5 5 3 2 5 6 3 4 1 2 3 9 11 9 10 13 14 13 13 12 12 13 12 10 10 10 10 11 9 11 14 17 20 19 18 20 22 21 20 20 20 21 21 22 23 21 21 21 23 27 29 28 27 25 24 24 24 23 20 18 18 18 18 19 19 17 15 15
4 8 11 8 6 6 9 13 10 10 8 7 5 4 2 3 5 4 4 4 2 1 5 6 2 3 2 3 3 6 6 8 8 8 9 10 10 10 11 12 12 9 8 7 6 6 8 12 16 17 18 19 18 19 22 22 20 20 20 21 22 22 22 21 21 23 25 29 30 28 28 26 25 26 26 23 21 21 22 22 22 21 20 17 16 14
7 7 7 6 6 8 9 9 9 12 9 3 3 2 2 2 1 1 2 1 2 2 7 6 3 5 1 3 2 2 4 10 10 7 7 8 8 9 9 10 12 10 8 6 7 8 9 13 16 16 16 18 18 18 20 21 20 19 20 21 22 22 22 22 23 25 28 30 30 29 28 28 28 28 27 25 24 23 22 22 22 21 19 17 15 14
8 7 5 5 6 6 6 4 4 6 5 4 3 1 1 4 3 2 3 3 3 3 6 6 5 7 1 4 3 3 4 13 15 13 14 13 11 9 8 8 10 10 7 6 8 9 10 11 13 14 15 17 18 18 19 20 19 18 19 20 21 22 22 22 23 25 27 29 28 28 29 29 30 30 29 28 26 24 22 22 22 21 19 17 15 14
6 6 6 5 5 5 5 3 3 3 2 3 2 3 2 3 2 2 3 0 2 4 6 5 4 4 2 4 5 5 6 16 15 13 15 13 11 9 8 9 8 8 8 8 8 9 10 10 11 13 15 17 18 19 20 21 21 19 19 20 20 21 22 23 24 23 25 27 27 28 29 29 30 30 29 28 26 24 23 22 22 21 19 18 17 15
5 6 5 3 3 2 7 4 2 3 0 3 3 4 4 2 1 1 3 1 1 4 6 4 3 2 3 3 5 7 6 14 10 9 11 9 8 8 8 8 8 9 10 10 10 10 9 9 11 14 15 16 18 20 22 23 23 21 20 20 20 20 22 23 23 23 23 25 25 27 29 29 31 31 29 27 25 24 24 23 22 20 20 20 18 17
3 5 4 3 4 2 5 6 6 4 3 3 3 5 5 4 4 2 3 2 2 3 4 4 1 2 2 2 6 6 3 6 3 5 7 8 8 8 8 8 9 10 10 10 9 8 8 10 13 15 16 17 18 21 23 23 23 21 20 20 19 20 22 22 22 22 21 21 23 26 28 30 30 29 27 26 25 25 25 23 22 21 20 20 18 17
4 6 7 6 5 6 6 6 6 6 1 4 2 4 3 5 5 2 3 4 3 0 3 2 1 0 2 2 6 5 5 5 4 5 7 8 9 9 8 8 9 9 8 8 7 8 9 13 17 18 18 19 20 21 21 21 21 21 20 21 21 21 23 22 21 21 19 19 22 24 27 28 28 27 25 25 25 25 24 23 21 20 19 19 18 18
3 5 7 4 2 5 9 7 6 7 3 2 1 3 4 4 7 5 1 1 4 2 3 1 2 1 1 2 7 6 5 6 5 6 7 8 8 7 5 6 7 7 7 6 6 7 9 12 17 20 21 22 21 19 20 21 23 24 24 23 22 21 22 21 20 19 19 20 20 22 25 26 26 26 25 25 25 24 23 22 20 20 19 20 19 18
3 5 7 3 5 7 7 5 3 6 6 3 1 4 2 3 4 4 2 3 5 1 4 2 3 2 1 1 4 6 3 4 5 5 6 6 6 5 4 5 5 4 5 5 6 7 7 8 13 18 20 21 21 19 20 21 23 25 26 25 24 22 21 20 19 18 19 20 19 21 24 26 26 25 25 24 23 23 24 23 22 21 21 21 20 18
3 3 7 5 5 6 0 2 3 4 1 4 4 3 2 2 0 1 2 2 2 2 2 3 1 2 2 0 4 5 3 0 3 5 6 5 4 4 3 4 3 3 4 5 5 6 6 7 10 14 15 16 18 17 16 17 20 23 25 25 24 22 20 18 18 18 18 17 17 20 24 26 26 25 24 23 22 24 25 24 23 23 23 22 19 18
1 2 5 6 4 2 4 3 1 5 5 3 2 2 2 3 4 2 2 4 4 3 2 1 1 1 0 3 5 6 6 4 3 3 5 4 3 2 1 1 1 3 4 4 4 5 6 8 11 14 15 15 16 14 12 14 17 19 22 23 23 21 18 16 15 15 15 14 15 19 24 26 24 24 24 23 24 25 25 24 24 24 23 21 18 18
3 2 4 6 5 2 2 0 2 1 1 3 4 3 2 1 3 2 1 2 4 5 3 2 2 2 1 3 5 4 1 5 6 4 2 4 5 5 5 5 6 6 6 5 4 4 6 8 11 14 15 16 15 12 11 12 13 13 17 21 22 21 19 16 14 11 10 11 12 16 23 26 25 25 25 24 24 24 23 24 24 23 22 19 17 19
1 1 3 3 4 3 1 3 6 7 4 4 3 2 1 2 4 4 1 2 2 4 4 4 3 1 3 3 4 2 6 7 6 6 5 5 7 7 7 8 6 5 5 6 5 4 4 7 11 13 14 16 16 12 10 12 11 12 15 18 20 22 21 19 17 12 11 15 16 16 21 25 25 25 25 24 22 21 22 24 24 22 20 18 17 19
2 3 2 1 1 1 2 1 9 12 8 6 3 1 2 2 4 5 4 3 1 2 2 3 3 0 3 3 3 5 6 6 7 6 5 5 6 7 8 8 7 5 5 6 5 6 6 8 10 11 11 15 16 13 12 14 15 15 14 14 17 20 22 21 19 16 16 20 21 19 19 22 23 23 23 24 22 21 23 24 23 21 20 19 18 18
1 3 2 2 3 2 3 3 5 8 7 6 3 3 3 1 3 5 5 4 3 2 1 3 2 1 2 3 3 6 7 7 8 7 4 3 5 7 8 8 8 8 6 6 7 5 5 5 5 6 9 12 13 11 12 12 12 12 13 14 15 18 20 22 20 17 17 20 20 19 21 22 23 23 22 21 21 22 23 22 22 22 20 20 20 18
0 1 2 3 3 3 3 3 4 5 4 4 1 4 3 2 3 2 1 3 3 2 3 5 2 2 0 2 3 6 9 9 9 6 2 2 5 7 7 8 9 9 7 5 6 6 3 2 1 5 9 11 10 9 9 8 6 8 11 14 16 17 19 21 21 17 17 19 18 18 21 22 21 20 20 19 18 20 21 21 21 21 19 20 21 19
2 1 2 5 3 2 2 4 3 0 2 2 1 4 5 5 5 2 2 4 2 2 3 5 4 3 3 4 5 6 8 9 7 5 3 4 6 6 7 8 8 9 8 6 6 6 5 4 5 9 11 11 11 10 9 7 6 7 11 13 14 15 17 20 22 20 19 20 18 16 20 21 19 18 20 20 18 19 20 20 18 17 18 20 22 21
3 1 2 5 5 4 3 5 5 1 3 3 2 5 6 4 5 4 3 2 2 2 3 1 5 8 6 5 7 7 7 8 6 4 4 6 7 7 7 8 9 9 8 7 7 8 7 6 7 9 11 11 10 11 10 8 6 6 7 8 10 13 15 17 18 20 22 22 21 19 20 22 21 21 22 22 21 21 21 20 18 18 19 20 22 22
4 3 3 3 2 2 4 4 3 1 3 4 4 4 5 4 6 7 3 0 2 4 2 2 6 9 7 6 8 7 6 7 6 5 5 6 7 7 8 10 11 11 10 10 10 10 10 8 8 11 14 14 12 10 11 10 6 4 3 4 6 8 11 14 17 20 22 23 23 21 20 21 21 21 21 22 22 22 20 20 20 22 22 22 23 24
5 2 3 4 4 7 9 8 4 4 5 4 5 5 5 6 7 6 1 2 1 4 4 6 7 7 6 6 6 6 6 6 7 7 7 9 9 9 10 12 12 11 12 12 11 11 11 10 9 13 16 18 19 15 12 11 9 6 5 5 5 5 8 11 14 18 20 21 21 18 18 20 20 20 21 22 21 20 19 20 22 23 22 23 24 24
4 2 3 4 5 8 11 11 6 4 7 7 7 6 6 8 9 8 5 6 9 8 8 10 11 7 5 5 6 6 6 6 7 7 9 11 11 11 12 12 11 11 12 12 12 12 11 11 11 15 18 19 20 19 14 10 11 12 11 10 8 6 7 8 9 13 15 17 18 17 17 18 18 19 21 20 18 17 17 20 22 22 22 23 23 23
3 1 1 4 4 5 8 9 5 5 10 9 8 9 7 7 9 8 7 9 10 9 9 12 11 7 3 3 6 6 6 8 9 10 10 10 9 11 13 12 11 12 11 11 12 12 12 12 14 17 19 20 20 21 17 10 12 15 15 16 14 11 9 8 8 9 11 12 14 15 15 16 16 17 20 20 18 16 15 18 21 22 22 22 22 22
3 1 1 4 4 2 4 6 5 1 9 10 10 11 10 5 6 5 3 4 6 8 10 9 7 4 2 2 6 7 10 12 12 10 10 8 8 11 13 11 11 11 11 11 11 12 12 12 14 17 19 21 22 23 21 17 16 15 12 13 15 14 11 9 8 8 10 11 12 12 14 15 16 16 18 20 18 16 15 17 18 20 20 20 21 21
2 4 2 3 3 0 3 4 5 3 5 7 7 9 8 2 5 6 5 5 4 6 7 5 4 5 5 5 7 9 11 12 9 8 9 8 8 10 10 9 10 10 10 10 10 11 12 11 14 17 20 22 24 24 24 25 26 24 19 15 13 12 9 6 4 7 9 10 11 12 12 14 15 15 17 19 18 16 15 14 15 16 17 19 20 21
2 5 4 2 3 1 2 3 3 2 4 2 5 6 5 2 7 9 6 6 6 6 5 5 6 6 5 7 9 8 9 10 8 6 7 6 6 8 8 8 8 8 8 9 8 9 10 12 15 19 22 23 23 24 28 30 30 30 29 25 21 17 13 10 9 10 9 9 9 10 11 12 12 12 13 15 16 17 16 15 14 14 14 15 17 18
3 4 3 2 3 3 1 3 3 1 2 1 4 6 6 5 9 13 10 8 8 10 10 9 9 8 6 7 9 8 8 9 8 7 7 5 4 6 7 7 7 7 7 7 7 8 11 14 16 19 23 25 24 25 29 31 30 31 32 31 30 28 25 23 22 20 16 11 8 7 9 10 11 10 10 11 13 16 17 16 14 13 12 12 13 14
5 4 2 2 2 2 2 2 2 2 1 2 5 6 5 5 6 10 10 8 5 9 11 9 8 9 9 8 7 8 8 9 9 8 7 5 4 5 7 6 6 6 7 8 9 10 13 15 16 17 22 25 25 25 27 28 29 30 31 32 32 30 29 29 29 28 26 22 17 10 6 5 6 6 6 7 9 12 13 13 12 11 11 11 12 13
5 4 2 2 2 2 3 2 3 4 1 2 3 3 2 2 3 2 5 4 2 5 9 10 9 8 8 8 8 8 8 9 9 7 6 6 5 6 7 8 8 9 9 13 16 16 16 18 18 18 22 26 25 24 24 27 29 30 31 30 29 28 28 28 28 27 28 28 26 22 16 10 7 4 2 3 5 7 8 8 7 8 10 11 13 14
5 3 3 3 1 2 4 3 3 3 2 1 1 4 2 2 3 2 4 3 2 2 7 11 11 9 9 9 8 7 5 8 8 3 3 4 4 5 7 9 12 12 11 13 17 18 18 19 19 20 23 25 24 21 22 24 26 29 30 28 27 27 26 26 25 25 26 26 26 26 25 22 18 16 12 8 4 3 5 7 7 7 8 9 11 14
9 5 4 4 2 2 4 3 2 2 1 1 4 6 4 3 4 1 4 3 3 5 6 10 11 9 8 8 7 4 4 7 5 2 2 2 2 3 5 7 10 12 12 13 16 18 18 18 19 20 23 24 22 21 21 21 22 26 29 27 27 28 27 25 24 24 24 23 23 23 24 24 23 23 22 19 16 12 9 6 8 9 10 9 10 12
8 5 4 4 3 3 4 3 1 1 1 3 4 6 6 3 2 2 2 2 4 7 7 9 11 8 6 6 4 2 5 6 5 4 5 5 4 3 5 5 6 9 11 11 13 15 18 20 21 21 22 22 21 20 21 20 21 24 26 25 26 27 26 25 23 21 21 20 20 20 21 21 22 22 22 21 19 18 17 15 10 7 9 12 12 11
4 4 3 3 3 3 4 3 1 1 3 3 5 7 6 2 1 3 3 4 4 7 6 6 8 7 5 5 5 4 4 5 6 6 6 6 5 5 7 10 11 14 16 15 13 14 18 21 21 20 20 20 19 19 20 21 22 24 23 23 25 24 22 21 20 20 20 19 20 19 19 20 19 19 20 21 19 16 16 17 15 12 8 8 12 13
2 3 3 2 2 2 3 3 1 0 2 4 6 6 3 1 2 2 1 1 4 7 7 7 8 9 9 9 8 7 6 7 9 9 9 8 7 8 10 13 16 18 19 19 18 18 19 20 20 20 19 17 17 18 18 19 21 22 21 22 22 20 18 18 18 19 19 19 20 20 19 19 19 17 17 19 19 18 17 16 15 13 13 12 10 10
1 1 1 2 2 2 3 3 1 1 3 7 7 4 2 2 2 1 3 6 7 9 10 10 8 9 11 10 9 9 9 9 9 9 9 8 8 9 12 14 15 16 17 18 18 17 18 18 18 19 18 16 16 16 16 17 19 20 20 20 19 16 16 16 17 18 18 19 20 20 19 19 19 18 17 17 18 18 17 17 17 15 15 15 15 13
2 1 2 0 1 1 2 2 2 1 5 7 3 2 3 3 3 4 6 7 7 8 8 9 7 8 10 11 9 9 9 8 8 7 8 7 7 9 12 14 15 15 15 16 15 15 15 16 16 16 15 15 15 15 16 17 17 19 21 20 17 15 15 16 16 17 18 19 19 20 20 19 18 18 17 16 16 16 16 17 18 17 16 16 16 17
2 2 4 3 3 3 4 3 2 0 3 5 6 6 7 8 7 8 9 8 7 6 6 7 8 8 8 9 9 8 7 7 7 7 7 6 6 8 11 12 12 13 13 13 13 13 13 14 13 13 13 13 14 15 17 17 18 20 21 19 15 15 15 15 16 17 18 19 19 19 19 18 18 18 17 16 16 16 17 18 18 18 18 18 17 17
1 4 5 5 5 6 6 4 4 4 6 8 8 7 9 9 8 9 10 9 7 7 6 7 7 7 7 8 8 7 6 6 7 7 7 6 6 8 10 10 11 11 11 12 12 11 10 10 12 14 18 18 18 18 19 19 19 20 19 16 15 15 15 15 17 18 18 18 18 17 17 18 18 17 17 16 16 16 16 17 18 19 19 19 17 16
1 2 4 4 4 4 4 3 4 6 7 7 8 8 8 8 8 7 8 8 8 8 8 7 7 7 6 7 8 6 5 6 6 6 6 5 6 8 10 11 11 10 9 10 10 9 9 11 15 18 20 21 19 18 18 19 19 19 17 16 15 15 14 15 17 18 18 18 17 17 17 17 18 17 16 16 16 16 15 16 17 19 20 20 20 19
1 2 4 4 2 3 4 4 4 6 6 5 6 7 6 7 8 8 7 7 8 8 8 8 8 6 5 5 7 7 6 6 6 7 5 5 7 9 11 11 11 10 11 12 11 11 12 15 17 18 18 18 17 17 17 18 18 17 16 17 16 14 14 15 16 16 17 17 17 17 17 16 17 16 16 16 16 16 17 17 18 19 19 19 20 21
1 3 3 4 5 5 5 4 5 6 6 5 5 6 5 6 8 8 7 7 8 8 8 8 9 8 7 6 7 8 8 7 7 8 6 5 7 9 10 11 11 12 14 15 15 16 16 16 15 15 15 15 14 14 15 16 16 16 16 16 16 15 14 14 14 14 15 15 16 16 16 16 15 16 15 15 15 15 15 16 17 17 17 16 17 18
3 4 3 5 5 3 3 4 5 5 4 2 3 5 6 6 7 8 8 7 8 8 7 8 9 11 11 11 11 10 7 6 8 10 8 6 7 9 10 13 14 14 14 14 14 14 14 13 12 12 12 12 12 12 13 13 13 14 14 14 14 14 14 13 13 13 13 14 15 15 14 14 14 14 14 14 15 15 15 15 15 15 15 15 15 16
3 4 4 5 5 4 5 6 5 5 4 3 3 4 5 6 8 9 8 7 7 7 8 8 8 9 9 10 14 13 9 7 11 12 9 6 8 11 13 14 14 13 11 11 11 11 11 11 10 9 9 9 9 10 11 11 12 12 13 13 13 12 12 12 13 13 13 14 14 13 13 13 12 12 12 13 14 16 17 16 15 14 13 13 13 13
Wind_Direction
152 191 245 223 224 221 226 228 217 225 226 249 280 267 263 267 271 270 268 273 228 216 251 236 231 238 238 239 241 224 149 160 152 127 131 140 135 135 140 144 150 152 157 158 158 161 163 162 161 161 163 164 167 169 168 166 165 165 165 164 164 166 168 169 169 171 171 170 171 174 177 180 180 177 172 168 164 160 160 159 152 147 145 147 154 158
142 199 239 224 216 217 224 229 219 231 239 246 259 266 277 266 268 272 263 267 222 195 256 235 222 240 236 233 239 214 148 160 155 144 148 146 136 137 140 143 149 143 139 148 158 167 168 164 164 165 164 164 166 169 169 168 167 168 169 167 166 167 169 171 172 172 173 173 173 171 171 171 169 168 165 158 152 150 151 149 146 145 143 144 151 149
227 231 241 228 214 213 229 231 212 225 236 240 247 266 277 267 282 283 260 252 206 179 265 239 210 234 234 227 240 234 180 177 162 156 153 147 140 142 145 144 144 140 146 158 165 173 172 169 167 165 166 168 168 168 169 169 166 168 171 170 168 169 170 172 174 174 173 172 171 168 165 162 159 157 151 144 139 138 138 137 137 139 138 140 145 147
238 247 236 223 207 203 236 244 221 230 243 236 238 250 261 256 275 285 278 288 286 242 246 222 206 231 239 236 268 11 57 79 135 144 139 141 141 144 149 147 151 152 157 165 167 172 175 175 172 166 167 170 168 166 168 167 164 167 172 172 170 170 171 172 173 173 169 164 162 161 160 159 156 149 140 133 128 125 125 127 131 132 134 134 133 134
238 249 220 181 198 203 227 247 231 226 251 243 228 224 238 230 217 247 282 319 322 302 255 153 177 245 262 241 307 42 68 82 104 116 113 124 130 135 149 158 166 163 161 164 166 173 179 181 176 167 166 167 167 168 167 166 163 165 171 172 172 172 172 170 168 167 164 159 156 154 153 155 153 148 144 137 132 129 127 130 133 132 132 131 128 129
245 251 177 160 211 206 216 244 226 196 231 260 232 217 210 198 221 259 299 346 356 328 313 108 126 244 288 273 101 72 80 87 101 115 119 129 133 145 161 168 171 166 166 166 167 175 181 182 171 160 164 166 166 167 166 166 165 167 171 173 174 174 172 170 166 163 163 160 156 154 152 150 146 146 150 149 144 143 142 139 137 136 136 135 133 133
247 247 189 192 213 208 215 241 227 181 195 256 235 208 189 175 240 279 310 352 5 283 278 100 121 204 321 36 102 113 98 99 116 125 132 143 149 163 166 165 167 167 174 173 173 177 178 178 165 153 161 164 162 164 165 166 168 171 172 175 178 177 175 172 167 167 169 166 162 158 154 150 146 146 151 154 152 153 156 154 151 149 147 144 142 141
233 241 226 205 205 211 215 239 226 176 176 244 233 201 189 202 263 274 294 295 236 260 302 10 96 121 355 28 120 112 95 105 133 139 148 156 161 168 165 170 175 172 174 173 175 177 173 176 165 150 155 159 157 161 167 168 171 173 174 178 181 180 178 174 169 173 176 173 167 161 156 153 153 151 150 153 155 157 158 162 166 162 155 150 148 148
221 224 233 214 199 206 214 231 221 172 185 241 223 200 202 225 244 255 270 274 272 290 306 321 38 86 312 289 109 98 98 125 153 156 161 164 166 167 167 175 177 172 174 174 174 174 167 166 162 153 151 153 153 160 170 173 173 175 176 180 184 184 181 174 172 175 175 172 167 162 159 156 155 153 150 153 155 152 146 148 157 160 156 152 150 152
241 223 230 213 192 201 218 229 209 170 205 237 208 203 198 204 233 253 243 252 342 333 261 279 25 87 275 294 72 86 112 147 166 170 171 171 169 166 170 174 170 170 176 165 147 149 153 157 162 153 143 149 155 160 171 176 176 176 178 183 186 186 182 174 173 171 169 171 169 164 161 157 156 156 155 156 153 148 143 143 149 152 153 153 151 152
258 250 243 217 202 201 208 216 190 182 202 196 150 213 280 277 277 275 247 137 91 259 251 245 162 118 288 293 141 141 164 160 159 170 185 184 174 172 177 170 165 173 175 144 118 129 152 161 161 147 134 146 156 159 170 178 179 179 182 187 186 185 181 174 173 170 168 170 170 167 164 161 160 160 160 159 153 151 149 146 148 149 148 149 149 149
279 270 252 229 214 188 179 212 205 190 188 142 124 134 285 311 14 29 337 62 120 246 257 235 157 123 165 261 256 276 194 167 163 172 183 183 176 174 175 166 166 172 165 146 133 136 150 159 155 143 137 146 152 155 166 176 181 182 185 189 187 183 179 173 174 173 169 169 170 169 167 166 165 164 163 161 157 157 155 149 149 149 147 145 146 151
293 263 249 247 228 160 146 221 294 349 60 132 122 95 126 286 359 10 305 177 174 242 252 232 139 119 228 242 290 316 186 176 174 171 174 174 168 166 167 166 167 165 159 156 148 143 153 162 156 148 144 146 151 157 165 174 180 182 186 190 187 182 177 173 174 176 172 172 174 172 170 170 169 167 166 165 163 162 158 153 151 150 150 149 149 153
290 291 285 273 269 145 131 159 261 319 75 152 162 143 162 201 106 277 270 264 225 239 259 264 138 127 280 261 319 327 192 182 174 154 158 155 149 158 165 163 165 167 165 166 163 156 157 157 151 149 149 149 152 161 169 175 178 179 183 187 185 180 176 173 176 179 176 176 177 175 173 172 170 169 169 168 166 163 159 157 155 153 153 154 155 154
227 288 279 218 242 199 154 172 183 175 164 199 194 148 158 168 147 204 224 177 229 247 296 312 131 141 213 247 318 329 170 162 124 122 139 127 130 152 161 163 172 173 171 171 164 148 138 139 144 149 153 153 155 164 171 174 174 174 177 182 184 180 177 176 179 181 178 177 179 177 173 171 171 172 172 170 169 165 162 161 160 159 158 159 160 158
185 244 253 230 211 183 189 201 170 138 164 246 173 105 175 189 151 148 185 164 163 240 335 338 49 103 207 262 333 2 98 102 75 88 111 122 141 157 159 166 177 177 173 168 147 131 134 143 148 152 156 161 164 166 168 170 170 169 172 179 184 182 179 180 182 182 179 177 179 178 175 174 174 174 172 170 170 168 167 167 166 166 167 167 165 164
175 248 274 285 267 206 201 200 165 147 178 254 120 159 217 179 128 125 204 48 76 85 288 347 87 1 321 354 350 10 78 92 85 91 105 126 146 153 154 166 177 176 167 147 131 138 146 149 154 157 161 167 169 166 167 171 172 172 176 180 182 180 181 183 183 181 178 176 178 179 178 177 176 175 173 171 171 171 170 170 170 170 169 168 167 168
187 251 284 295 291 265 213 191 194 167 153 129 177 217 207 70 82 112 137 25 51 160 276 356 118 145 72 9 340 352 48 89 77 87 108 123 136 143 156 168 178 168 135 104 110 128 134 144 155 161 165 166 165 167 172 175 176 176 178 180 180 179 180 183 183 181 179 177 178 181 181 179 178 177 175 174 173 174 172 169 169 169 168 168 169 170
189 239 289 272 250 277 310 122 289 292 183 148 178 196 106 97 290 58 119 120 109 178 284 335 29 122 112 354 333 326 286 275 70 98 115 120 131 142 162 173 170 129 100 85 97 110 114 125 136 147 153 148 149 158 165 169 173 175 176 178 179 179 178 179 181 180 180 178 177 181 181 179 180 179 177 177 176 175 173 170 168 169 169 170 172 173
87 161 284 286 258 309 29 48 299 304 327 24 56 13 40 140 163 163 150 147 146 164 209 301 356 107 113 320 307 281 274 313 3 92 110 108 105 97 111 114 46 59 69 75 93 105 110 108 114 127 129 123 127 135 137 149 162 167 169 170 172 173 172 171 171 172 176 179 176 177 178 178 179 178 178 179 178 175 174 171 169 170 170 170 173 172
19 104 243 292 325 29 34 325 150 175 338 60 62 23 348 38 114 135 169 123 130 146 168 175 186 251 304 323 299 270 70 28 1 352 30 70 59 44 42 37 28 23 24 30 46 79 102 104 107 116 117 114 119 127 134 144 150 151 154 158 161 162 157 150 147 147 157 167 165 168 176 179 179 178 179 179 176 175 175 173 171 170 168 169 171 169
47 118 198 294 359 49 232 207 120 102 93 105 118 138 162 140 113 116 238 290 96 127 156 163 165 278 334 332 315 42 87 73 38 4 0 45 56 48 50 52 45 33 28 24 18 27 72 96 102 106 108 113 121 135 156 161 160 161 156 151 147 142 139 140 142 141 151 162 167 172 176 177 177 177 177 172 169 174 176 173 170 169 168 167 170 173
140 102 102 272 287 114 267 219 107 103 93 80 64 86 105 113 110 124 191 228 65 81 110 112 116 57 331 334 7 58 71 74 69 49 18 38 64 70 70 66 59 56 71 74 51 19 17 48 77 91 97 107 120 139 165 176 180 178 167 150 138 135 141 151 155 152 154 157 159 163 165 166 167 165 163 163 166 173 174 171 170 172 170 168 170 176
107 77 63 317 296 302 293 315 63 77 81 72 9 347 38 79 129 140 176 169 126 136 123 84 91 196 319 342 27 66 65 58 60 56 32 28 65 79 80 73 62 53 61 84 88 66 28 35 72 99 100 103 115 138 164 179 177 165 159 159 162 162 164 169 165 150 142 142 143 147 151 150 145 141 142 147 156 166 170 172 174 175 171 168 170 175
117 82 83 63 0 345 311 293 355 25 55 87 323 320 355 21 65 91 133 91 98 189 152 122 157 222 242 12 30 60 64 52 37 29 23 63 76 81 79 72 66 62 57 68 92 93 65 0 65 96 102 114 131 150 169 176 155 141 154 170 182 180 175 177 174 157 143 143 142 146 150 144 136 136 141 145 150 159 166 171 175 175 173 170 171 176
114 169 113 107 143 180 191 224 240 307 78 84 348 349 12 25 38 73 122 82 102 209 102 108 162 166 109 72 54 55 70 69 43 10 10 54 63 68 73 71 65 65 68 73 90 91 72 46 56 69 87 116 144 164 178 178 166 158 161 168 173 169 166 174 180 176 169 164 160 159 156 151 152 160 166 169 167 165 166 168 174 180 180 176 175 177
101 95 75 113 154 180 196 229 242 213 101 96 50 20 20 17 36 71 97 89 161 152 61 86 158 132 115 100 86 79 88 94 78 35 31 51 53 51 63 74 68 62 65 66 73 79 72 63 60 63 73 92 120 148 162 165 171 174 168 164 155 148 153 166 178 184 181 173 170 171 160 153 163 173 174 177 178 177 178 176 180 191 192 186 183 182
98 48 24 82 107 338 327 310 313 43 83 110 111 58 36 29 50 70 77 264 156 113 69 202 146 122 121 118 109 106 105 101 83 58 50 56 58 55 59 65 63 59 56 53 55 61 61 55 48 46 46 44 55 96 131 140 144 163 190 185 152 139 150 161 170 178 177 171 171 174 163 157 168 177 176 177 179 182 187 184 185 194 196 191 190 189
102 49 6 46 32 6 2 357 15 76 74 74 94 90 77 69 74 89 105 283 120 118 152 157 124 106 106 98 90 82 76 79 76 69 68 67 64 61 61 59 54 52 53 51 51 53 54 52 49 46 43 37 38 58 93 118 128 146 180 190 174 170 175 173 168 168 171 173 174 173 169 170 177 180 177 179 181 184 189 188 186 191 194 193 193 195
96 53 22 68 53 26 18 357 345 92 88 64 54 56 74 83 83 86 86 78 77 83 110 116 99 80 67 73 79 72 66 77 76 63 59 64 66 65 63 59 52 49 50 48 48 50 49 49 47 45 45 42 39 45 62 98 129 146 164 173 178 194 198 189 171 157 163 174 175 172 175 182 186 186 184 186 184 183 188 193 192 192 194 196 198 200
65 82 310 86 74 29 20 2 347 98 94 71 39 19 28 71 78 73 82 86 80 80 95 100 95 79 46 69 92 80 66 68 65 55 50 53 62 68 67 62 55 50 47 44 46 47 46 45 43 42 41 39 39 42 48 77 131 149 161 167 172 183 194 198 184 158 157 167 169 172 179 187 190 192 195 195 189 184 190 198 200 198 199 202 204 203
75 92 348 66 78 346 359 1 323 99 83 61 29 2 352 24 80 75 63 77 102 122 119 106 102 114 123 100 88 77 71 66 57 55 58 51 55 67 68 64 59 54 48 43 41 40 40 38 36 37 39 38 39 40 44 64 96 113 128 146 161 174 191 206 190 156 151 155 157 167 181 191 196 198 201 199 190 185 187 191 196 197 198 199 199 197
135 117 87 80 95 313 335 345 286 276 62 44 356 335 322 324 95 81 45 41 71 120 130 124 125 136 140 117 88 77 79 76 65 61 65 55 51 63 68 67 62 58 54 48 41 39 38 34 33 35 37 39 41 42 49 62 73 78 84 100 127 149 162 173 145 118 126 136 146 163 179 190 197 201 204 204 198 193 188 183 184 185 186 190 191 191
115 123 135 134 118 182 291 351 332 351 66 37 310 329 338 35 91 87 66 48 56 76 101 108 105 111 117 107 99 95 91 90 89 83 75 66 58 61 64 66 66 65 62 56 49 43 40 36 36 38 39 39 40 48 58 64 67 70 75 80 87 96 99 95 84 82 95 109 121 145 166 180 189 192 197 201 203 205 203 199 192 184 180 186 190 192
95 104 121 119 113 145 140 53 43 50 93 240 307 346 8 44 81 85 72 58 76 94 98 98 102 106 101 97 104 109 104 99 92 79 70 71 78 77 69 59 57 58 58 56 48 43 43 42 42 44 43 39 37 46 57 64 67 69 71 71 71 72 71 69 65 63 68 74 82 116 152 168 172 173 181 192 199 205 208 208 205 200 193 193 197 201
124 113 103 100 94 117 121 94 114 138 87 326 329 343 357 16 50 72 66 47 72 108 108 103 109 113 111 111 113 114 115 106 86 64 58 62 72 84 83 72 60 56 57 63 60 50 47 46 45 48 49 44 40 43 51 57 62 64 65 65 64 62 60 60 57 55 56 57 58 70 106 150 155 156 174 193 203 208 211 212 213 212 210 207 207 211
122 124 106 89 81 113 119 93 106 124 125 337 342 337 348 349 336 79 94 55 36 118 123 121 122 123 123 124 127 133 129 102 76 50 43 61 75 84 91 91 80 69 65 70 69 63 60 56 52 52 53 49 43 42 50 56 57 58 58 58 58 56 54 53 51 49 50 50 53 57 62 63 68 75 109 192 217 228 228 230 229 221 217 215 212 212
74 112 134 123 89 99 108 100 113 140 168 179 264 277 255 211 240 195 107 75 46 119 136 132 132 139 140 138 147 158 127 82 73 51 27 66 85 87 91 95 94 90 83 77 73 66 62 59 55 53 55 55 49 45 47 52 54 55 54 51 50 50 48 46 45 45 46 46 47 49 52 53 53 51 49 42 14 308 270 266 263 248 234 230 225 220
47 50 87 94 67 61 99 109 121 144 176 221 257 276 280 237 230 136 83 91 129 138 142 135 134 148 156 153 163 164 97 86 106 177 192 143 134 114 101 99 98 95 87 79 75 69 62 60 58 54 54 55 54 51 49 47 49 52 51 47 45 43 40 38 40 43 45 45 44 44 45 46 47 46 43 37 33 29 14 334 293 268 253 244 238 234
35 28 44 67 63 64 88 91 78 131 235 275 280 283 293 286 245 127 120 190 159 143 150 146 144 157 165 156 152 94 87 119 153 180 178 172 172 147 121 106 92 83 74 71 72 71 69 68 63 56 52 51 52 55 55 53 53 51 47 45 44 40 35 33 36 40 43 43 43 41 39 38 38 38 35 31 30 33 31 25 11 325 277 257 252 251
21 18 41 78 86 77 89 99 75 247 259 292 299 287 293 317 151 161 190 211 158 134 139 139 136 139 134 120 106 72 68 101 119 126 134 136 127 110 101 93 81 71 66 68 73 76 76 73 67 60 54 51 52 54 57 59 59 54 49 45 43 38 32 29 29 32 35 37 39 38 35 31 28 28 28 24 21 22 22 22 23 16 348 296 270 258
20 14 16 49 59 59 85 95 80 295 293 317 312 299 310 84 163 213 236 112 111 106 98 95 101 104 98 91 92 94 89 87 94 99 102 101 96 84 77 74 68 62 60 62 66 70 72 71 67 63 57 52 51 53 57 63 62 56 51 48 41 33 27 24 24 25 25 27 30 31 31 27 21 17 16 13 10 10 10 8 6 7 7 358 328 283
72 69 24 23 34 65 74 61 81 167 308 324 323 319 6 75 157 161 70 74 85 91 90 86 88 98 101 97 95 99 98 88 89 94 92 89 87 81 77 74 67 60 57 56 55 59 66 67 63 60 56 50 48 49 51 57 58 52 47 43 37 27 20 17 16 17 19 21 20 20 22 21 17 15 13 8 3 0 360 358 354 350 354 360 359 347
5 103 142 9 339 99 103 69 75 244 304 327 358 76 62 62 94 96 84 77 74 80 89 91 86 90 100 104 102 99 96 92 92 92 88 85 86 82 79 79 76 69 62 58 55 55 63 66 61 59 57 52 50 49 46 47 51 48 41 35 30 28 27 21 15 14 17 20 20 19 18 17 14 13 12 10 7 3 1 358 351 347 346 345 348 351
0 91 113 89 45 75 101 108 118 117 344 14 55 78 72 66 67 75 82 81 69 64 80 93 94 90 92 98 99 94 94 97 96 93 91 87 82 80 77 76 77 74 66 58 54 53 59 63 60 57 54 50 52 55 53 54 57 54 46 38 31 32 35 33 30 28 26 24 23 23 20 16 12 10 8 6 4 5 6 2 356 353 353 349 343 340
76 91 88 90 95 84 76 85 102 83 58 56 66 76 78 75 71 73 78 78 70 66 68 79 88 87 84 88 90 88 92 101 100 96 98 95 85 84 83 74 70 72 65 51 44 42 46 50 51 53 55 55 57 59 58 57 58 55 50 45 42 42 46 48 48 46 43 39 34 31 27 22 17 12 8 5 3 3 3 1 359 0 3 3 357 346
327 33 64 92 125 102 81 98 103 89 84 82 81 80 79 79 77 76 77 80 81 78 74 76 82 82 79 83 88 84 79 90 96 92 91 96 89 82 79 71 66 68 61 41 30 26 34 48 56 59 59 57 55 55 53 49 47 45 41 38 36 36 41 47 50 50 49 46 41 36 31 26 21 16 10 8 7 5 4 3 3 6 9 9 3 354
296 48 73 81 82 81 101 130 112 90 87 88 89 91 90 89 90 90 92 99 98 92 91 93 91 88 87 92 97 92 76 76 96 100 90 86 87 84 79 71 61 55 50 46 47 51 57 62 63 60 57 54 49 46 45 44 42 37 33 30 26 23 27 36 41 43 43 40 37 35 32 28 22 16 11 6 3 2 2 3 3 5 9 8 2 355
89 78 85 94 87 86 101 117 104 84 63 50 75 92 95 97 101 100 96 98 100 101 101 94 87 91 101 104 100 93 83 78 93 101 97 93 95 91 81 69 62 63 66 67 69 69 67 64 60 54 51 45 36 33 36 39 39 34 29 27 22 18 23 30 33 35 36 34 33 33 31 28 24 17 10 5 360 355 353 354 356 356 356 356 357 356
87 95 104 109 111 133 164 154 133 116 101 93 108 104 98 96 96 92 87 89 97 104 102 88 79 82 90 97 98 93 87 87 96 100 103 108 100 86 80 80 82 83 82 79 75 72 68 63 57 50 44 35 24 23 25 26 26 25 24 25 21 19 23 28 28 31 31 28 28 27 25 24 24 21 17 12 5 356 344 336 336 342 347 346 345 349
116 142 147 131 134 159 159 152 144 126 127 158 149 116 100 97 98 98 100 99 103 112 112 103 94 86 82 87 94 97 97 102 105 106 107 101 86 83 89 96 96 92 86 80 75 71 66 59 51 44 42 36 26 20 17 14 14 13 11 12 14 17 20 23 26 30 29 25 23 23 22 24 27 26 23 16 8 2 355 342 327 321 329 338 336 336